Weather History for Menominee, MI

Change the Weather History Date:

Saturday, December 8, 2012

  Actual Average Record
Temperature  
Mean Temperature 29 °F -  
Max Temperature 35 °F 32 °F 46 °F (1963)
Min Temperature 21 °F 17 °F -8 °F (1976)
Degree Days  
Heating Degree Days 36    
Moisture  
Dew Point 21 °F    
Average Humidity 73    
Maximum Humidity 93    
Minimum Humidity 52    
Precipitation  
Precipitation 0.00 in - - ()
Sea Level Pressure  
Sea Level Pressure 30.07 in    
Wind  
Wind Speed 6 mph (NNE)    
Max Wind Speed 10 mph    
Max Gust Speed -    
Visibility 10 miles    
Events      
Averages and records for this station are not official NWS values.
T = Trace of Precipitation, MM = Missing Value Source: NWS Daily Summary

Daily Weather History Graph

Daily Weather History Graph

Search for Another Location

Airport:

Trip Planner

Search our weather history database for the weather conditions in past years. The results will help you decide how hot, cold, wet, or windy it might be!

Date:

Astronomy

Dec. 08, 2012 Rise Set
Actual Time 7:16 AM CST 4:08 PM CST
Civil Twilight 6:43 AM CST 4:42 PM CST
Nautical Twilight 6:06 AM CST 5:19 PM CST
Astronomical Twilight 5:30 AM CST 5:54 PM CST
Moon 1:29 AM CST (12/8) 12:48 PM CST (12/8)
Length of Visible Light 9h 58m
Length of Day
8h 51m
Waning Crescent, 28% of the Moon is Illuminated
Dec 8
Waning Crescent
Dec 13
New
Dec 19
First Quarter
Dec 28
Full
Jan 4
Last Quarter

Hourly Weather History & Observations

Time (CST) Temp. Windchill Dew Point Humidity Pressure Visibility Wind Dir Wind Speed Gust Speed Precip Events Conditions
12:15 AM 30.2 °F 24.3 °F 21.2 °F 69% 30.01 in 10.0 mi North 5.8 mph - N/A   Overcast
12:35 AM 28.4 °F 23.3 °F 21.2 °F 74% 30.00 in 10.0 mi North 4.6 mph - N/A   Overcast
12:55 AM 28.4 °F 22.2 °F 21.2 °F 74% 30.00 in 10.0 mi North 5.8 mph - N/A   Overcast
1:15 AM 28.4 °F 22.2 °F 21.2 °F 74% 30.01 in 10.0 mi North 5.8 mph - N/A   Overcast
1:35 AM 28.4 °F 21.2 °F 23.0 °F 80% 30.00 in 10.0 mi North 6.9 mph - N/A   Overcast
1:55 AM 28.4 °F 21.2 °F 21.2 °F 74% 30.00 in 10.0 mi North 6.9 mph - N/A   Overcast
2:15 AM 28.4 °F 20.4 °F 23.0 °F 80% 30.01 in 9.0 mi North 8.1 mph - N/A   Overcast
2:35 AM 28.4 °F 19.7 °F 21.2 °F 74% 30.00 in 8.0 mi North 9.2 mph - N/A   Overcast
2:55 AM 28.4 °F 20.4 °F 23.0 °F 80% 30.00 in 8.0 mi North 8.1 mph - N/A   Overcast
3:15 AM 28.4 °F 19.1 °F 23.0 °F 80% 29.99 in 10.0 mi North 10.4 mph - N/A   Overcast
3:35 AM 28.4 °F 20.4 °F 24.8 °F 86% 29.99 in 10.0 mi North 8.1 mph - N/A   Overcast
3:55 AM 26.6 °F 18.2 °F 24.8 °F 93% 29.99 in 10.0 mi North 8.1 mph - N/A   Overcast
4:15 AM 26.6 °F 17.5 °F 24.8 °F 93% 29.99 in 10.0 mi North 9.2 mph - N/A   Overcast
4:35 AM 26.6 °F 19.1 °F 24.8 °F 93% 30.00 in 10.0 mi North 6.9 mph - N/A   Overcast
4:55 AM 26.6 °F 18.2 °F 24.8 °F 93% 30.01 in 10.0 mi North 8.1 mph - N/A   Overcast
5:15 AM 26.6 °F 17.5 °F 24.8 °F 93% 30.00 in 5.0 mi North 9.2 mph - N/A   Overcast
5:35 AM 26.6 °F 19.1 °F 24.8 °F 93% 30.01 in 6.0 mi North 6.9 mph - N/A   Overcast
5:55 AM 26.6 °F 17.5 °F 24.8 °F 93% 30.01 in 5.0 mi North 9.2 mph - N/A   Overcast
6:15 AM 26.6 °F 17.5 °F 24.8 °F 93% 30.02 in 5.0 mi North 9.2 mph - N/A   Overcast
6:35 AM 26.6 °F 17.5 °F 24.8 °F 93% 30.02 in 5.0 mi North 9.2 mph - N/A   Overcast
6:55 AM 26.6 °F 18.2 °F 24.8 °F 93% 30.03 in 7.0 mi North 8.1 mph - N/A   Overcast
7:15 AM 26.6 °F 17.5 °F 24.8 °F 93% 30.03 in 5.0 mi North 9.2 mph - N/A   Overcast
7:35 AM 26.6 °F 19.1 °F 23.0 °F 86% 30.03 in 10.0 mi North 6.9 mph - N/A   Overcast
7:55 AM 26.6 °F 20.0 °F 23.0 °F 86% 30.04 in 10.0 mi NNW 5.8 mph - N/A   Overcast
8:15 AM 26.6 °F 20.0 °F 23.0 °F 86% 30.04 in 10.0 mi North 5.8 mph - N/A   Mostly Cloudy
8:35 AM 26.6 °F 20.0 °F 24.8 °F 93% 30.04 in 10.0 mi North 5.8 mph - N/A   Partly Cloudy
8:55 AM 28.4 °F 20.4 °F 24.8 °F 86% 30.04 in 10.0 mi North 8.1 mph - N/A   Mostly Cloudy
9:15 AM 28.4 °F 21.2 °F 23.0 °F 80% 30.05 in 10.0 mi North 6.9 mph - N/A   Partly Cloudy
9:35 AM 28.4 °F 20.4 °F 23.0 °F 80% 30.06 in 10.0 mi NNE 8.1 mph - N/A   Clear
9:55 AM 30.2 °F 22.6 °F 23.0 °F 75% 30.06 in 10.0 mi North 8.1 mph - N/A   Clear
10:15 AM 30.2 °F 23.4 °F 23.0 °F 75% 30.06 in 10.0 mi North 6.9 mph - N/A   Clear
10:35 AM 32.0 °F 24.8 °F 24.8 °F 75% 30.07 in 10.0 mi NNE 8.1 mph - N/A   Clear
10:55 AM 33.8 °F 26.4 °F 24.8 °F 70% 30.06 in 10.0 mi NNE 9.2 mph - N/A   Clear
11:15 AM 33.8 °F 26.4 °F 24.8 °F 70% 30.06 in 10.0 mi North 9.2 mph - N/A   Scattered Clouds
11:35 AM 33.8 °F 29.6 °F 26.6 °F 75% 30.05 in 10.0 mi NNW 4.6 mph - N/A   Scattered Clouds
11:55 AM 33.8 °F - 23.0 °F 65% 30.06 in 10.0 mi Calm Calm - N/A   Scattered Clouds
12:15 PM 33.8 °F - 21.2 °F 60% 30.05 in 10.0 mi Calm Calm - N/A   Partly Cloudy
12:35 PM 35.6 °F 29.2 °F 21.2 °F 56% 30.05 in 10.0 mi NNE 8.1 mph - N/A   Partly Cloudy
12:55 PM 33.8 °F 28.6 °F 23.0 °F 65% 30.05 in 10.0 mi NE 5.8 mph - N/A   Scattered Clouds
1:15 PM 35.6 °F 32.8 °F 24.8 °F 65% 30.05 in 10.0 mi SE 3.5 mph - N/A   Mostly Cloudy
1:35 PM 35.6 °F 31.7 °F 23.0 °F 60% 30.05 in 10.0 mi ESE 4.6 mph - N/A   Scattered Clouds
1:55 PM 35.6 °F - 23.0 °F 60% 30.06 in 10.0 mi Calm Calm - N/A   Partly Cloudy
2:15 PM 35.6 °F 29.9 °F 24.8 °F 65% 30.06 in 10.0 mi ESE 6.9 mph - N/A   Clear
2:35 PM 33.8 °F 30.8 °F 24.8 °F 70% 30.06 in 10.0 mi East 3.5 mph - N/A   Clear
2:55 PM 35.6 °F 30.7 °F 21.2 °F 56% 30.06 in 10.0 mi ENE 5.8 mph - N/A   Clear
3:15 PM 33.8 °F 29.6 °F 23.0 °F 65% 30.08 in 10.0 mi North 4.6 mph - N/A   Mostly Cloudy
3:35 PM 33.8 °F 30.8 °F 17.6 °F 52% 30.09 in 10.0 mi NE 3.5 mph - N/A   Overcast
3:55 PM 33.8 °F 29.6 °F 17.6 °F 52% 30.09 in 10.0 mi North 4.6 mph - N/A   Partly Cloudy
4:15 PM 32.0 °F 27.5 °F 17.6 °F 55% 30.11 in 10.0 mi North 4.6 mph - N/A   Clear
4:35 PM 30.2 °F 26.7 °F 17.6 °F 60% 30.12 in 10.0 mi North 3.5 mph - N/A   Clear
4:55 PM 30.2 °F 25.4 °F 19.4 °F 64% 30.13 in 10.0 mi North 4.6 mph - N/A   Clear
5:15 PM 30.2 °F 23.4 °F 17.6 °F 60% 30.13 in 10.0 mi NNE 6.9 mph - N/A   Clear
5:35 PM 28.4 °F 22.2 °F 17.6 °F 64% 30.13 in 10.0 mi NE 5.8 mph - N/A   Clear
5:55 PM 28.4 °F 24.6 °F 17.6 °F 64% 30.15 in 10.0 mi NE 3.5 mph - N/A   Clear
6:15 PM 28.4 °F - 17.6 °F 64% 30.15 in 10.0 mi Calm Calm - N/A   Clear
6:35 PM 28.4 °F - 17.6 °F 64% 30.16 in 10.0 mi Calm Calm - N/A   Clear
6:55 PM 26.6 °F 22.6 °F 17.6 °F 69% 30.16 in 10.0 mi NE 3.5 mph - N/A   Clear
7:15 PM 26.6 °F 21.2 °F 17.6 °F 69% 30.15 in 10.0 mi NE 4.6 mph - N/A   Clear
7:55 PM 26.6 °F - 17.6 °F 69% 30.16 in 10.0 mi Calm Calm - N/A   Clear
8:15 PM 26.6 °F 20.0 °F 17.6 °F 69% 30.16 in 10.0 mi NE 5.8 mph - N/A   Clear
8:35 PM 26.6 °F 19.1 °F 17.6 °F 69% 30.15 in 10.0 mi NE 6.9 mph - N/A   Clear
8:55 PM 26.6 °F 20.0 °F 15.8 °F 64% 30.15 in 10.0 mi NE 5.8 mph - N/A   Clear
9:15 PM 26.6 °F 21.2 °F 15.8 °F 64% 30.15 in 10.0 mi NE 4.6 mph - N/A   Clear
9:35 PM 26.6 °F 21.2 °F 15.8 °F 64% 30.16 in 10.0 mi NNE 4.6 mph - N/A   Clear
9:55 PM 26.6 °F 19.1 °F 15.8 °F 64% 30.15 in 10.0 mi NNE 6.9 mph - N/A   Clear
10:15 PM 26.6 °F 20.0 °F 15.8 °F 64% 30.15 in 10.0 mi NE 5.8 mph - N/A   Clear
10:35 PM 26.6 °F 22.6 °F 15.8 °F 64% 30.16 in 10.0 mi NE 3.5 mph - N/A   Clear
10:55 PM 24.8 °F 20.5 °F 17.6 °F 74% 30.17 in 10.0 mi NNE 3.5 mph - N/A   Clear
11:15 PM 24.8 °F - 15.8 °F 69% 30.18 in 10.0 mi Calm Calm - N/A   Clear
11:35 PM 23.0 °F - 15.8 °F 74% 30.19 in 10.0 mi Calm Calm - N/A   Partly Cloudy
11:55 PM 21.2 °F - 15.8 °F 80% 30.20 in 10.0 mi Calm Calm - N/A   Partly Cloudy